Location: Lake Arresoe
(56.0000°N, 12.5000°E)
Time: 22:19:42
(UTC+02:00)

Okean 3 - Pass Details

Date: 14 August 2020
Orbit: 576 x 601 km, 82.5° (Epoch: 01 October)

Event Time Altitude Azimuth Distance (km) Brightness Sun altitude
Rises 22:14:32 0° 350° (N) 2,857 8.0 -10.5°
Reaches altitude 10° 22:16:49 10° 357° (N) 1,953 6.9 -10.8°
Maximum altitude 22:21:00 46° 71° (ENE) 811 4.0 -11.2°
Enters shadow 22:24:07 17° 141° (SE) 1,554 4.9 -11.5°
